Regional Weather Roundup
Issued by NWS Boston, MA

Home | Current Version | Previous Version | Text Only | Print | Product List | Glossary On
Versions: 1 2 3 4 5 6 7 8 9 10 11 12 13 14 15 16 17 18 19 20 21 22 23 24 25 26 27 28 29 30 31 32 33 34 35 36 37 38 39 40 41 42 43 44 45 46 47 48 49 50
000
ASUS41 KBOX 211110
RWRBOX

REGIONAL WEATHER ROUNDUP
NATIONAL WEATHER SERVICE TAUNTON MA
700 AM EDT TUE APR 21 2015

NOTE:  "FAIR" INDICATES FEW OR NO CLOUDS BELOW 12,000 FEET WITH NO
SIGNIFICANT WEATHER AND/OR OBSTRUCTIONS TO VISIBILITY.  THE FOLLOWING
OBSERVATION LOCATIONS DO NOT REPORT PRESENT WEATHER...PROVINCETOWN...
SMITHFIELD...BLOCK ISLAND...KEENE...AND OXFORD.

MAZALL-211200-
EASTERN MASSACHUSETTS

CITY           SKY/WX    TMP DP  RH WIND       PRES   REMARKS
BOSTON         CLOUDY    54  54 100 SE5       29.55F FOG
BEVERLY        FOG       48  47  96 SE7       29.55S VSB 1/4
LAWRENCE       CLOUDY    50  49  96 E3        29.56R
BEDFORD        CLOUDY    51  50  96 E3        29.53F
BLUE HILL        N/A     55  55 100 S12       29.54F
NORWOOD        NOT AVBL
MARSHFIELD     CLOUDY    57  57 100 SW8G16    29.58F
PLYMOUTH       CLOUDY    57  57 100 SW9       29.58F
TAUNTON        CLOUDY    58  56  93 S6        29.57R
NEW BEDFORD    FOG       54  54 100 S13       29.58F VSB 1/4
$$

MAZALL-211200-
CAPE COD AND THE ISLANDS

CITY           SKY/WX    TMP DP  RH WIND       PRES   REMARKS
FALMOUTH       CLOUDY    59  59 100 SW16      29.60S
HYANNIS        FOG       53  53 100 S13G21    29.60R VSB 1/2
CHATHAM        FOG       50  50 100 S7        29.62S VSB 1/4
PROVINCETOWN   CLOUDY   N/A N/A N/A S13G21    29.58F VSB 1/2
NANTUCKET      LGT RAIN  52  52 100 S13       29.62S VSB 1/4
MARTHAS VNYRD  FOG       52  52 100 SW6       29.59F VSB 1/2
$$

MAZALL-211200-
CENTRAL AND WESTERN MASSACHUSETTS

CITY           SKY/WX    TMP DP  RH WIND       PRES   REMARKS
WORCESTER      FOG       49  48  97 CALM      29.55R VSB<1/4
FITCHBURG      CLOUDY    49  47  93 CALM      29.56F
ORANGE         CLOUDY    47  45  93 N8        29.54F
SPRINGFIELD    CLOUDY    48  47  95 NE5       29.53S
WESTFIELD      MOCLDY    49  46  90 NE3       29.55S
NORTH ADAMS    CLOUDY    49  45  86 E6        29.55R
PITTSFIELD     CLOUDY    47  46  97 CALM      29.54R
$$

RIZALL-211200-
RHODE ISLAND

CITY           SKY/WX    TMP DP  RH WIND       PRES   REMARKS
PROVIDENCE     CLOUDY    56  55  97 S9        29.57S FOG
NEWPORT        FOG       50  50 100 S6        29.58S VSB 1/4
BLOCK ISLAND   CLOUDY    48  46  93 SW14      29.59S VSB 1/4
SMITHFIELD     CLOUDY    54  48  82 CALM      29.56S VSB 1/4
WESTERLY       FOG       50  50 100 S5        29.58R VSB 1/2
$$

CTZALL-211200-
CONNECTICUT

CITY           SKY/WX    TMP DP  RH WIND       PRES   REMARKS
BRADLEY INTL   MOCLDY    51  48  89 CALM      29.55S
HARTFORD       CLOUDY    51  49  92 SW6       29.56R
BRIDGEPORT     FOG       49  48  97 SW5       29.58R VSB<1/4
DANBURY        CLOUDY    52  51  97 SE3       29.56S
GROTON         LGT RAIN  52  52 100 SW5       29.58R FOG
NEW HAVEN      FOG       49  48  97 S5        29.57R VSB 1/8
CHESTER        FOG       54  54 100 S6        29.57R VSB<1/4
MERIDEN        CLOUDY    53  51  93 CALM      29.56S
WILLIMANTIC    CLOUDY    55  53  93 SW3       29.55S
OXFORD         MOCLDY    54  48  82 CALM      29.57R
$$

MEZ002-015-021-024-NHZ003-005-008-011-012-014-VTZ005-008-211200-
NORTHERN NEW ENGLAND

CITY           SKY/WX    TMP DP  RH WIND       PRES   REMARKS
PORTLAND ME    TSTM      48  46  93 NE8       29.63F FOG
BANGOR ME      LGT RAIN  44  41  89 SE23G36   29.79F FOG
CONCORD NH     CLOUDY    47  45  93 NE7       29.56F
MANCHESTER NH  CLOUDY    48  46  93 NE5       29.55F
NASHUA NH      CLOUDY    48  47  97 CALM      29.57S FOG
PORTSMOUTH NH  CLOUDY    47  46  96 NE7       29.56R FOG
JAFFREY NH     CLOUDY    45  44  97 NW3       29.56F FOG
KEENE NH       CLOUDY    46  45  93 N6        29.57F
BURLINGTON VT  LGT RAIN  48  45  89 CALM      29.52F
MT. WASHINGTON NOT AVBL
$$

NYZ052-076-211200-
EASTERN NEW YORK

CITY           SKY/WX    TMP DP  RH WIND       PRES   REMARKS
ALBANY         CLOUDY    51  48  89 W6        29.56R
NEW YORK CITY  CLOUDY    56  53  90 W5        29.57S
$$

ANZALL-211200-
MARINE OBSERVATIONS

STATION/POSITION TIME  TEMP    WIND        PRES    VSBY  WAVE
                       AIR SEA DIR/SP/G                  HT/PER
                 (UTC) (F)     (DEG/KT/KT) (MB)    (MI)  (FT/S)
BOSTON BUOY      1050   46 41  160/ 14/ 14 1001.3R         7/ 9
BUZZARDS BAY     1000          200/ 21/ 22 1002.1R
NANTUCKET SOUND  1050   52 43  180/ 17/ 19 1002.4R         3/ 3
MASS BAY-STELLWA 1004   46 42  140/ 16/ 19   N/A    1 5/8 10/11
ISLE OF SHOALS   1000   46     110/ 12/ 15  999.6F
S OF BLOCK IS    1008      40                N/A          13/11
$$

......................KEY.........................
  SKY/WX - SKY CONDITION/PRESENT WEATHER
  TMP    - TEMPERATURE IN FAHRENHEIT
  DWPT   - DEWPOINT IN FAHRENHEIT
  RH     - RELATIVE HUMIDITY IN PERCENT
  WIND   - DIRECTION AND SPEED IN MPH
  PRES   - MEAN SEA LEVEL PRESSURE IN INCHES OF HG
  WCI    - WIND CHILL INDEX
  VSB    - VISIBILITY IN MILES
  HX     - HEAT INDEX
  TC     - TEMPERATURE IN CELSIUS
  VRB    - VARIABLE WIND DIRECTION
  N/A    - NOT AVAILABLE


USA.gov is the U.S. government's official web portal to all federal, state and local government web resources and services.